Location: Gibsondale
(40.9931°N, 80.2478°W)
Time: 08:50:24
(UTC+00:00)

Cosmos 2369 - Pass Details

Date: 29 October 2020
Orbit: 840 x 854 km, 71.0° (Epoch: 26 November)

Event Time Altitude Azimuth Distance (km) Brightness Sun altitude
Rises 23:30:19 0° 192° (SSW) 3,407 7.1 -13.8°
Reaches altitude 10° 23:32:47 10° 189° (S) 2,474 6.3 -14.3°
Maximum altitude 23:38:24 64° 109° (ESE) 944 3.7 -15.3°
Drops below altitude 10° 23:44:01 10° 30° (NNE) 2,483 5.8 -16.4°
Enters shadow 23:45:10 - 28° (NNE) 2,917 6.2 -16.6°
